IRNSS-1E (41241 NORAD) Tracking and Keplerian Element Data

This shows tracking and keplerian element data for the satellite.

Feedback or suggestion? Click here.




ElementValue
Catalog41241
NameIRNSS-1E
Epoch Orbit3626
Epoch Day352.61725513
Epoch Year2025
RAAN62.3675
Inclination32.8383
Eccentricity0.0021661
Argument of Perigee188.4275
Mean Anonmoly170.6574
Mean Motion1.00271358
Decay Rate-3.05E-06
L11 41241U 16003A 25352.61725513 -.00000305 00000+0 00000+0 0 9996
L22 41241 32.8383 62.3675 0021661 188.4275 170.6574 1.00271358 36265



Live tracking and technical data element details for IRNSS-1E (NORAD 41241). IRNSS-1E can be tracked NOW for your location showing map with azimuth and elevation plus other details from your city location.







IsCatalogInMostPopularTable: catalog: 41241, numindb: 671
Update: records affected: 1



GetName: 41241 IRNSS-1E

Hit Count: updated at: Sat, 14 Mar 2026 02:13:05 GMT